Ashland, WI

9:17 PM CDT on April 29, 2017 (GMT -0500)
Kennedy Memorial

Weather History for KASX - April, 2013

Change the Weather History Date:

Monday, April 15, 2013

  Actual Average Record
Temperature  
Mean Temperature 36 °F -  
Max Temperature 39 °F 52 °F 77 °F (1963)
Min Temperature 32 °F 30 °F 14 °F (1950)
Degree Days  
Heating Degree Days 30    
Moisture  
Dew Point 29 °F    
Average Humidity 77    
Maximum Humidity 100    
Minimum Humidity 60    
Precipitation  
Precipitation 0.00 in - - ()
Sea Level Pressure  
Sea Level Pressure 29.68 in    
Wind  
Wind Speed 9 mph (SSW)    
Max Wind Speed 21 mph    
Max Gust Speed 29 mph    
Visibility 9 miles    
Events      
Averages and records for this station are not official NWS values.
T = Trace of Precipitation, MM = Missing Value Source: NWS Daily Summary

Daily Weather History Graph

Daily Weather History Graph

Search for Another Location

Airport or City:

Trip Planner

Search our weather history database for the weather conditions in past years. The results will help you decide how hot, cold, wet, or windy it might be!

Date:

Astronomy

Apr. 15, 2013 Rise Set
Actual Time 6:16 AM CDT 7:51 PM CDT
Civil Twilight 5:44 AM CDT 8:23 PM CDT
Nautical Twilight 5:06 AM CDT 9:02 PM CDT
Astronomical Twilight 4:24 AM CDT 9:44 PM CDT
Moon 9:31 AM CDT (4/15) 12:14 AM CDT (4/15)
Length of Visible Light 14h 39m
Length of Day
13h 35m
Waxing Crescent, 25% of the Moon is Illuminated
Apr 15
Waxing Crescent
Apr 18
First Quarter
Apr 25
Full
May 2
Last Quarter
May 9
New

Hourly Weather History & Observations

Time (CDT) Temp. Windchill Dew Point Humidity Pressure Visibility Wind Dir Wind Speed Gust Speed Precip Events Conditions
12:53 AM 33.1 °F 23.9 °F 30.9 °F 92% 29.68 in 9.0 mi ENE 12.7 mph - N/A   Overcast
1:53 AM 33.1 °F 24.4 °F 30.9 °F 92% 29.64 in 10.0 mi ENE 11.5 mph - N/A   Overcast
2:53 AM 33.1 °F 26.1 °F 32.0 °F 96% 29.62 in 5.0 mi ENE 8.1 mph - N/A   Overcast
3:53 AM 33.1 °F 28.7 °F 32.0 °F 96% 29.62 in 8.0 mi East 4.6 mph - N/A   Overcast
4:53 AM 33.1 °F - 30.9 °F 92% 29.61 in 10.0 mi Calm Calm - N/A   Overcast
5:00 AM 33.8 °F - 32.0 °F 93% 29.58 in 8.0 mi Calm Calm - N/A   Overcast
5:17 AM 33.8 °F - 32.0 °F 93% 29.57 in 1.8 mi Calm Calm - N/A   Overcast
5:50 AM 33.8 °F 29.6 °F 30.2 °F 87% 29.57 in 3.0 mi East 4.6 mph - N/A   Overcast
5:53 AM 33.1 °F 30.0 °F 30.9 °F 92% 29.60 in 5.0 mi East 3.5 mph - N/A   Overcast
6:36 AM 32.0 °F 28.7 °F 30.2 °F 93% 29.56 in 8.0 mi East 3.5 mph - N/A   Scattered Clouds
6:53 AM 32.0 °F - 32.0 °F 100% 29.60 in 9.0 mi Calm Calm - N/A   Clear
7:53 AM 36.0 °F 32.1 °F 33.1 °F 89% 29.60 in 10.0 mi South 4.6 mph - N/A   Partly Cloudy
8:53 AM 37.0 °F 31.6 °F 32.0 °F 82% 29.60 in 10.0 mi SSW 6.9 mph - N/A   Mostly Cloudy
9:07 AM 37.4 °F 30.8 °F 32.0 °F 81% 29.57 in 10.0 mi SSW 9.2 mph - N/A   Overcast
9:21 AM 37.4 °F 29.8 °F 30.2 °F 75% 29.56 in 10.0 mi SSW 11.5 mph 21.9 mph N/A   Overcast
9:53 AM 37.9 °F 31.5 °F 30.0 °F 73% 29.59 in 10.0 mi SSW 9.2 mph 19.6 mph N/A   Overcast
10:24 AM 39.2 °F 31.2 °F 28.4 °F 65% 29.56 in 10.0 mi SSW 13.8 mph 26.5 mph N/A   Overcast
10:53 AM 37.9 °F 27.6 °F 28.0 °F 68% 29.62 in 10.0 mi SW 20.7 mph 28.8 mph N/A   Overcast
11:53 AM 37.9 °F 27.9 °F 25.0 °F 60% 29.65 in 10.0 mi SW 19.6 mph 26.5 mph N/A   Overcast
12:53 PM 39.0 °F 29.9 °F 26.1 °F 60% 29.67 in 10.0 mi SW 17.3 mph 26.5 mph N/A   Overcast
1:53 PM 39.0 °F 29.9 °F 26.1 °F 60% 29.69 in 10.0 mi SSW 17.3 mph 28.8 mph N/A   Overcast
2:53 PM 37.9 °F 28.2 °F 27.0 °F 65% 29.72 in 10.0 mi SW 18.4 mph 28.8 mph N/A   Overcast
3:53 PM 39.9 °F 31.8 °F 27.0 °F 60% 29.72 in 10.0 mi SSW 15.0 mph 28.8 mph N/A   Overcast
4:53 PM 39.0 °F 31.8 °F 27.0 °F 62% 29.74 in 10.0 mi SW 11.5 mph 20.7 mph N/A   Overcast
5:53 PM 39.0 °F 31.4 °F 27.0 °F 62% 29.75 in 10.0 mi SSW 12.7 mph 18.4 mph N/A   Overcast
6:53 PM 39.0 °F 31.8 °F 27.0 °F 62% 29.78 in 10.0 mi SW 11.5 mph - N/A   Overcast
7:53 PM 37.9 °F 30.0 °F 27.0 °F 65% 29.80 in 10.0 mi SW 12.7 mph 23.0 mph N/A   Overcast
8:36 PM 37.4 °F 29.3 °F 26.6 °F 65% 29.80 in 10.0 mi WSW 12.7 mph 20.7 mph N/A   Overcast
8:53 PM 37.9 °F 30.9 °F 28.0 °F 68% 29.83 in 10.0 mi WSW 10.4 mph 19.6 mph N/A   Overcast
9:18 PM 37.4 °F 29.3 °F 28.4 °F 70% 29.81 in 10.0 mi WSW 12.7 mph - N/A   Overcast
9:53 PM 37.0 °F 29.3 °F 28.0 °F 70% 29.84 in 10.0 mi WSW 11.5 mph - N/A   Overcast
10:23 PM 37.4 °F 30.3 °F 28.4 °F 70% 29.83 in 10.0 mi WSW 10.4 mph - N/A   Mostly Cloudy
10:53 PM 37.0 °F 30.4 °F 28.0 °F 70% 29.87 in 10.0 mi SW 9.2 mph - N/A   Overcast
11:53 PM 36.0 °F 29.0 °F 28.0 °F 73% 29.88 in 10.0 mi SW 9.2 mph - N/A   Overcast